Bennett, CO

4:51 PM MST on February 12, 2016 (GMT -0700)
Front Range

Weather History for KFTG - April, 2013

Change the Weather History Date:

Wednesday, April 3, 2013

  Actual Average (KDEN) Record (KDEN)
Temperature  
Mean Temperature 47 °F 45 °F  
Max Temperature 59 °F 59 °F 78 °F (1943)
Min Temperature 35 °F 31 °F 7 °F (1891)
Degree Days  
Heating Degree Days 18 20  
Month to date heating degree days 62  
Since 1 July heating degree days 5264  
Cooling Degree Days 0 0  
Month to date cooling degree days 0  
Year to date cooling degree days 0  
Moisture  
Dew Point 34 °F    
Average Humidity 75    
Maximum Humidity 100    
Minimum Humidity 25    
Precipitation  
Precipitation 0.00 in 0.04 in 0.98 in (1964)
Month to date precipitation 0.11  
Year to date precipitation 1.81  
Snow  
Snow 0.00 in - - ()
Month to date snowfall  
Since 1 July snowfall  
Snow Depth -    
Sea Level Pressure  
Sea Level Pressure 30.11 in    
Wind  
Wind Speed 4 mph (West)    
Max Wind Speed 8 mph    
Max Gust Speed -    
Visibility 9 miles    
Events Rain    
T = Trace of Precipitation, MM = Missing Value Source: NWS Daily Summary

Daily Weather History Graph

Daily Weather History Graph

Search for Another Location

Airport or City:

Trip Planner

Search our weather history database for the weather conditions in past years. The results will help you decide how hot, cold, wet, or windy it might be!

Date:

Astronomy

Apr. 03, 2013 Rise Set
Actual Time 6:38 AM MDT 7:24 PM MDT
Civil Twilight 6:11 AM MDT 7:52 PM MDT
Nautical Twilight 5:39 AM MDT 8:24 PM MDT
Astronomical Twilight 5:05 AM MDT 8:57 PM MDT
Moon 2:20 AM MDT (4/3) 12:40 PM MDT (4/3)
Length of Visible Light 13h 40m
Length of Day
12h 46m
Last Quarter, 44% of the Moon is Illuminated
Apr 3
Last Quarter
Apr 10
New
Apr 18
First Quarter
Apr 25
Full
May 2
Last Quarter

Hourly Weather History & Observations

Time (MDT) Temp. Windchill Dew Point Humidity Pressure Visibility Wind Dir Wind Speed Gust Speed Precip Events Conditions
12:17 AM 37.4 °F 34.9 °F 35.6 °F 93% 30.11 in 5.0 mi NNE 3.5 mph - N/A   Overcast
12:38 AM 35.6 °F 32.8 °F 35.6 °F 100% 30.11 in 7.0 mi NE 3.5 mph - N/A   Overcast
12:58 AM 37.4 °F - 35.6 °F 93% 30.12 in 10.0 mi Calm Calm - N/A   Overcast
1:18 AM 37.4 °F - 35.6 °F 93% 30.11 in 7.0 mi Calm Calm - N/A   Overcast
1:38 AM 37.4 °F - 35.6 °F 93% 30.12 in 10.0 mi Calm Calm - N/A   Overcast
1:57 AM 37.4 °F - 35.6 °F 93% 30.11 in 10.0 mi Calm Calm - N/A   Overcast
2:18 AM 37.4 °F - 35.6 °F 93% 30.10 in 7.0 mi Calm Calm - N/A   Light Drizzle
2:37 AM 37.4 °F 34.9 °F 35.6 °F 93% 30.10 in 7.0 mi WSW 3.5 mph - N/A   Drizzle
2:58 AM 37.4 °F 33.8 °F 35.6 °F 93% 30.10 in 5.0 mi West 4.6 mph - N/A Rain Light Rain
3:18 AM 37.4 °F 34.9 °F 35.6 °F 93% 30.09 in 5.0 mi West 3.5 mph - N/A   Light Drizzle
3:38 AM 37.4 °F 32.8 °F 35.6 °F 93% 30.10 in 5.0 mi West 5.8 mph - N/A   Light Drizzle
3:58 AM 37.4 °F 33.8 °F 35.6 °F 93% 30.10 in 5.0 mi WNW 4.6 mph - N/A   Drizzle
4:18 AM 37.4 °F 32.8 °F 35.6 °F 93% 30.10 in 5.0 mi West 5.8 mph - N/A   Overcast
4:38 AM 37.4 °F 33.8 °F 35.6 °F 93% 30.10 in 4.0 mi West 4.6 mph - N/A   Overcast
4:58 AM 37.4 °F 32.8 °F 35.6 °F 93% 30.10 in 4.0 mi West 5.8 mph - N/A   Overcast
5:18 AM 37.4 °F 32.8 °F 35.6 °F 93% 30.10 in 4.0 mi WNW 5.8 mph - N/A   Overcast
5:38 AM 37.4 °F 32.8 °F 35.6 °F 93% 30.10 in 7.0 mi NNW 5.8 mph - N/A   Overcast
5:58 AM 37.4 °F 33.8 °F 35.6 °F 93% 30.12 in 7.0 mi NNW 4.6 mph - N/A   Overcast
6:18 AM 37.4 °F 32.1 °F 35.6 °F 93% 30.12 in 7.0 mi North 6.9 mph - N/A   Overcast
6:38 AM 37.4 °F 33.8 °F 35.6 °F 93% 30.12 in 4.0 mi North 4.6 mph - N/A   Overcast
6:58 AM 35.6 °F 31.7 °F 35.6 °F 100% 30.13 in 5.0 mi North 4.6 mph - N/A   Overcast
6:59 AM 35.6 °F 31.7 °F 35.6 °F 100% 30.13 in 5.0 mi North 4.6 mph - N/A   Overcast
8:47 AM 37.4 °F - 37.4 °F 100% 30.14 in 7.0 mi Calm Calm - N/A   Unknown
9:47 AM 41.0 °F 37.1 °F 37.4 °F 87% 30.14 in 10.0 mi SW 5.8 mph - N/A   Overcast
10:48 AM 44.6 °F 41.4 °F 37.4 °F 76% 30.13 in 10.0 mi SW 5.8 mph - N/A   Mostly Cloudy
11:48 AM 46.4 °F - 37.4 °F 71% 30.12 in 10.0 mi Calm Calm - N/A   Scattered Clouds
12:48 PM 50.0 °F - 35.6 °F 58% 30.11 in 10.0 mi Calm Calm - N/A   Scattered Clouds
1:55 PM 53.6 °F - 33.8 °F 47% 30.00 in 20.0 mi Calm Calm - N/A   Partly Cloudy
2:55 PM 55.4 °F - 30.2 °F 38% 30.08 in 20.0 mi Calm Calm - N/A   Partly Cloudy
3:58 PM 57.2 °F - 28.4 °F 33% 30.07 in 20.0 mi NE 5.8 mph - N/A   Partly Cloudy
4:50 PM 59.0 °F - 23.0 °F 25% 30.06 in 20.0 mi NNE 5.8 mph - N/A   Partly Cloudy
5:50 PM 59.0 °F - 23.0 °F 25% 30.06 in 20.0 mi East 6.9 mph - N/A   Partly Cloudy
6:50 PM 55.4 °F - 26.6 °F 33% 30.06 in 20.0 mi East 6.9 mph - N/A   Partly Cloudy
7:55 PM 50.0 °F - 28.4 °F 43% 30.09 in 10.0 mi SSE 5.8 mph - N/A   Scattered Clouds
8:59 PM 44.6 °F 40.7 °F 32.0 °F 61% 30.11 in 10.0 mi SSE 6.9 mph - N/A   Scattered Clouds
9:19 PM 42.8 °F 38.6 °F 32.0 °F 66% 30.12 in 10.0 mi SSE 6.9 mph - N/A   Scattered Clouds
9:38 PM 42.8 °F 40.1 °F 32.0 °F 66% 30.12 in 10.0 mi South 4.6 mph - N/A   Clear
9:58 PM 42.8 °F 38.6 °F 32.0 °F 66% 30.13 in 10.0 mi South 6.9 mph - N/A   Scattered Clouds
10:18 PM 44.6 °F 40.7 °F 32.0 °F 61% 30.13 in 10.0 mi South 6.9 mph - N/A   Scattered Clouds
10:38 PM 44.6 °F 40.7 °F 32.0 °F 61% 30.13 in 10.0 mi South 6.9 mph - N/A   Mostly Cloudy
10:58 PM 44.6 °F 41.4 °F 32.0 °F 61% 30.14 in 10.0 mi SSW 5.8 mph - N/A   Scattered Clouds
11:17 PM 46.4 °F 42.4 °F 30.2 °F 53% 30.14 in 10.0 mi SW 8.1 mph - N/A   Clear
11:38 PM 44.6 °F 40.7 °F 32.0 °F 61% 30.14 in 10.0 mi SW 6.9 mph - N/A   Clear
11:58 PM 44.6 °F 41.4 °F 30.2 °F 57% 30.14 in 10.0 mi SSW 5.8 mph - N/A   Clear